Back to catalog

STARLINK-35612

AliveCommunicationsVLEO
NORAD 66128·PAYLOAD·🇺🇸 United States

Launched Oct 22, 2025 from Vandenberg Space Force Base

Loading…

Next Passes (next 24 hours)

TLE

FreshSource: CelesTrak SupGP

Epoch: Sep 15, 2026, 02:30 UTC

1 66128C 25237Q   26258.10465278 -.00045763  00000+0 -13518-2 0  2582
2 66128  53.1575 238.8672 0001219  94.8551 283.1107 15.34419784    11

Track STARLINK-35612 in real time with AllMySat

Download on the App Store